• In Uzbekistan
  • List of Countries
  • For 7 days
  • Water Temperature
  • Satellite Maps
  • Weather Map
  • Weather Widgets
  • user-avatar
    Login

    Hourly Weather Solden

    Today, 22 June, Friday

    Time Temperature Precipitation Wind Pressure Humidity
    00:00 +8°C° 0.6 mm 2 mps 585 mmHg 91%
    01:00 +7°C° 0.6 mm 2 mps 584 mmHg 91%
    02:00 +7°C° 0.5 mm 2 mps 584 mmHg 91%
    03:00 +6°C° 0.5 mm 2 mps 584 mmHg 92%
    04:00 +5°C° 0.5 mm 3 mps 583 mmHg 92%
    05:00 +5°C° 0.1 mm 3 mps 584 mmHg 88%
    06:00 +7°C° 0.1 mm 3 mps 584 mmHg 84%
    07:00 +7°C° 0.1 mm 3 mps 585 mmHg 81%
    08:00 +8°C° 0 mm 3 mps 585 mmHg 71%
    09:00 +9°C° 0 mm 3 mps 586 mmHg 60%
    10:00 +11°C° 0 mm 3 mps 587 mmHg 50%
    11:00 +11°C° 0 mm 3 mps 587 mmHg 45%
    12:00 +12°C° 0 mm 3 mps 588 mmHg 41%
    13:00 +13°C° 0 mm 4 mps 588 mmHg 36%
    14:00 +12°C° 0 mm 4 mps 588 mmHg 37%
    15:00 +11°C° 0 mm 3 mps 588 mmHg 39%
    16:00 +11°C° 0 mm 3 mps 588 mmHg 41%
    17:00 +9°C° 0 mm 3 mps 587 mmHg 48%
    18:00 +8°C° 0 mm 3 mps 587 mmHg 54%
    19:00 +7°C° 0 mm 3 mps 587 mmHg 61%
    20:00 +5°C° 0 mm 2 mps 586 mmHg 67%
    21:00 +3°C° 0 mm 2 mps 586 mmHg 73%
    22:00 +2°C° 0 mm 2 mps 586 mmHg 80%
    23:00 +1°C° 0 mm 2 mps 586 mmHg 81%

    Tomorrow, 23 June, Saturday

    Time Temperature Precipitation Wind Pressure Humidity
    00:00 +1°C° 0 mm 2 mps 585 mmHg 83%
    01:00 -1°C° 0 mm 2 mps 585 mmHg 84%
    02:00 -1°C° 0 mm 2 mps 585 mmHg 85%
    03:00 0°C° 0 mm 1 mps 585 mmHg 85%
    04:00 0°C° 0 mm 1 mps 584 mmHg 86%
    05:00 +2°C° 0 mm 1 mps 585 mmHg 77%
    06:00 +3°C° 0 mm 1 mps 586 mmHg 69%
    07:00 +5°C° 0 mm 1 mps 587 mmHg 61%
    08:00 +7°C° 0 mm 1 mps 587 mmHg 53%
    09:00 +8°C° 0 mm 2 mps 588 mmHg 45%
    10:00 +10°C° 0 mm 2 mps 589 mmHg 37%
    11:00 +12°C° 0 mm 2 mps 589 mmHg 36%
    12:00 +13°C° 0 mm 2 mps 589 mmHg 35%
    13:00 +14°C° 0 mm 2 mps 590 mmHg 34%
    14:00 +13°C° 0 mm 3 mps 589 mmHg 36%
    15:00 +13°C° 0 mm 3 mps 589 mmHg 39%
    16:00 +12°C° 0 mm 3 mps 589 mmHg 41%
    17:00 +11°C° 0 mm 3 mps 588 mmHg 49%
    18:00 +9°C° 0 mm 2 mps 587 mmHg 58%
    19:00 +8°C° 0 mm 2 mps 587 mmHg 66%
    20:00 +6°C° 0 mm 2 mps 586 mmHg 74%
    21:00 +5°C° 0 mm 2 mps 586 mmHg 81%
    22:00 +4°C° 0 mm 1 mps 585 mmHg 88%
    23:00 +4°C° 0.1 mm 1 mps 585 mmHg 88%

    Day after tomorrow, 24 June, Sunday

    Time Temperature Precipitation Wind Pressure Humidity
    00:00 +4°C° 0.1 mm 1 mps 585 mmHg 88%
    01:00 +3°C° 0.1 mm 1 mps 585 mmHg 88%
    02:00 +3°C° 0.3 mm 1 mps 584 mmHg 89%
    03:00 +3°C° 0.3 mm 1 mps 584 mmHg 89%
    04:00 +3°C° 0.3 mm 1 mps 584 mmHg 89%
    05:00 +4°C° 0.5 mm 1 mps 584 mmHg 88%
    06:00 +4°C° 0.5 mm 1 mps 584 mmHg 87%
    07:00 +4°C° 0.5 mm 1 mps 584 mmHg 86%
    08:00 +4°C° 0.4 mm 2 mps 585 mmHg 81%
    09:00 +5°C° 0.4 mm 2 mps 585 mmHg 77%
    10:00 +6°C° 0.4 mm 2 mps 585 mmHg 72%
    11:00 +7°C° 0.4 mm 2 mps 586 mmHg 70%
    12:00 +7°C° 0.4 mm 2 mps 586 mmHg 68%
    13:00 +8°C° 0.4 mm 2 mps 586 mmHg 66%
    14:00 +8°C° 0.5 mm 2 mps 586 mmHg 68%
    15:00 +8°C° 0.5 mm 2 mps 586 mmHg 70%
    16:00 +7°C° 0.5 mm 2 mps 585 mmHg 71%
    17:00 +7°C° 0.4 mm 2 mps 585 mmHg 75%
    18:00 +6°C° 0.4 mm 2 mps 585 mmHg 79%
    19:00 +5°C° 0.4 mm 2 mps 584 mmHg 82%
    20:00 +4°C° 0.2 mm 2 mps 584 mmHg 86%
    21:00 +4°C° 0.2 mm 1 mps 584 mmHg 90%
    22:00 +3°C° 0.2 mm 1 mps 584 mmHg 94%
    23:00 +3°C° 0 mm 1 mps 583 mmHg 93%

    25 June, Monday

    Time Temperature Precipitation Wind Pressure Humidity
    00:00 +2°C° 0 mm 1 mps 583 mmHg 93%
    01:00 +2°C° 0 mm 1 mps 583 mmHg 93%
    02:00 +1°C° 0 mm 1 mps 582 mmHg 93%
    03:00 +1°C° 0 mm 1 mps 582 mmHg 92%
    04:00 +1°C° 0 mm 1 mps 582 mmHg 92%
    05:00 +2°C° 0 mm 1 mps 582 mmHg 88%
    06:00 +3°C° 0 mm 1 mps 583 mmHg 83%
    07:00 +4°C° 0 mm 2 mps 584 mmHg 78%
    08:00 +6°C° 0 mm 2 mps 585 mmHg 71%
    09:00 +7°C° 0 mm 2 mps 586 mmHg 63%
    10:00 +9°C° 0 mm 2 mps 586 mmHg 55%
    11:00 +10°C° 0.2 mm 2 mps 587 mmHg 53%
    12:00 +10°C° 0.2 mm 2 mps 587 mmHg 52%
    13:00 +12°C° 0.2 mm 2 mps 587 mmHg 50%
    14:00 +12°C° 0.4 mm 2 mps 587 mmHg 52%
    15:00 +12°C° 0.4 mm 2 mps 587 mmHg 53%
    16:00 +10°C° 0.4 mm 2 mps 586 mmHg 55%
    17:00 +9°C° 0.5 mm 2 mps 586 mmHg 62%
    18:00 +8°C° 0.5 mm 2 mps 586 mmHg 69%
    19:00 +7°C° 0.5 mm 2 mps 585 mmHg 77%
    20:00 +5°C° 0.2 mm 2 mps 585 mmHg 82%
    21:00 +4°C° 0.2 mm 1 mps 584 mmHg 87%
    22:00 +3°C° 0.2 mm 1 mps 584 mmHg 92%
    23:00 +2°C° 0 mm 1 mps 583 mmHg 92%

    26 June, Tuesday

    Time Temperature Precipitation Wind Pressure Humidity
    00:00 +2°C° 0 mm 1 mps 583 mmHg 92%
    01:00 +1°C° 0 mm 1 mps 583 mmHg 92%
    02:00 +1°C° 0 mm 1 mps 583 mmHg 90%
    03:00 +1°C° 0 mm 1 mps 582 mmHg 89%
    04:00 0°C° 0 mm 1 mps 582 mmHg 87%
    05:00 +2°C° 0 mm 1 mps 583 mmHg 80%
    06:00 +4°C° 0 mm 1 mps 584 mmHg 73%
    07:00 +6°C° 0 mm 1 mps 585 mmHg 66%
    08:00 +8°C° 0 mm 1 mps 586 mmHg 58%
    09:00 +10°C° 0 mm 1 mps 587 mmHg 49%
    10:00 +13°C° 0 mm 1 mps 588 mmHg 41%
    11:00 +13°C° 0 mm 1 mps 588 mmHg 40%
    12:00 +14°C° 0 mm 1 mps 588 mmHg 38%
    13:00 +15°C° 0 mm 2 mps 588 mmHg 37%
    14:00 +14°C° 0.1 mm 2 mps 588 mmHg 40%
    15:00 +14°C° 0.1 mm 2 mps 588 mmHg 43%
    16:00 +14°C° 0.1 mm 2 mps 587 mmHg 47%
    17:00 +13°C° 0.2 mm 2 mps 587 mmHg 54%
    18:00 +10°C° 0.2 mm 2 mps 587 mmHg 62%
    19:00 +9°C° 0.2 mm 2 mps 586 mmHg 70%
    20:00 +8°C° 0.1 mm 1 mps 586 mmHg 77%
    21:00 +6°C° 0.1 mm 1 mps 585 mmHg 85%
    22:00 +5°C° 0.1 mm 1 mps 585 mmHg 92%
    23:00 +4°C° 0 mm 1 mps 584 mmHg 93%

    27 June, Wednesday

    Time Temperature Precipitation Wind Pressure Humidity
    00:00 +4°C° 0 mm 1 mps 584 mmHg 93%
    01:00 +4°C° 0 mm 1 mps 584 mmHg 93%
    02:00 +3°C° 0 mm 1 mps 584 mmHg 93%
    03:00 +3°C° 0 mm 1 mps 584 mmHg 93%
    04:00 +3°C° 0 mm 1 mps 583 mmHg 93%
    05:00 +5°C° 0 mm 1 mps 584 mmHg 87%
    06:00 +6°C° 0 mm 1 mps 585 mmHg 81%
    07:00 +8°C° 0 mm 1 mps 586 mmHg 75%
    08:00 +10°C° 0 mm 1 mps 587 mmHg 64%
    09:00 +12°C° 0 mm 1 mps 588 mmHg 53%
    10:00 +14°C° 0 mm 1 mps 589 mmHg 43%
    11:00 +15°C° 0 mm 2 mps 589 mmHg 41%
    12:00 +16°C° 0 mm 2 mps 589 mmHg 39%
    13:00 +16°C° 0 mm 2 mps 589 mmHg 38%
    14:00 +16°C° 0.1 mm 2 mps 588 mmHg 40%
    15:00 +16°C° 0.1 mm 2 mps 588 mmHg 43%
    16:00 +15°C° 0.1 mm 2 mps 588 mmHg 46%
    17:00 +14°C° 0.2 mm 2 mps 587 mmHg 53%
    18:00 +13°C° 0.2 mm 2 mps 587 mmHg 61%
    19:00 +12°C° 0.2 mm 2 mps 586 mmHg 69%
    20:00 +9°C° 0.1 mm 2 mps 586 mmHg 76%
    21:00 +8°C° 0.1 mm 1 mps 585 mmHg 83%
    22:00 +6°C° 0.1 mm 1 mps 585 mmHg 90%
    23:00 +6°C° 0 mm 1 mps 584 mmHg 90%
    Show more